Location: Unspecified
(0.0000°N, 0.0000°E)
Time: 12:51:36
(UTC+00:00)

Vanguard 2 - Pass Details

Date: 19 September 2019
Orbit: 554 x 2937 km, 32.9° (Epoch: 13 October)

Event Time Altitude Azimuth Distance (km) Brightness Sun altitude
Rises 11:22:09 0° 313° (NW) 2,717 10.3 81.9°
Reaches altitude 10° 11:24:19 10° 318° (NW) 1,818 9.6 82.5°
Maximum altitude 11:28:11 55° 36° (NE) 720 8.7 83.4°
Drops below altitude 10° 11:32:57 10° 114° (ESE) 2,237 10.1 84.6°
Sets 11:35:52 0° 118° (ESE) 3,430 10.9 85.3°
